Location: Newark
(51.2667°N, 3.9167°E)
Time: 13:32:58
(UTC+00:00)

ISS - Visible Passes

Search period start: 20 October 2019 00:00
Search period end: 30 October 2019 00:00
Orbit: 411 x 421 km, 51.6° (Epoch: 20 October)

Date Brightness Start Highest point End Pass type
(mag) Time Alt. Az. Time Alt. Az. Time Alt. Az.
23 Oct -0.4 05:38:52 10° SSE 05:39:49 11° SE 05:40:47 10° ESE visible
25 Oct -1.3 05:36:14 10° SSW 05:38:55 22° SE 05:41:36 10° E visible
26 Oct -0.9 04:48:25 10° S 04:50:29 15° SE 04:52:33 10° ESE visible
27 Oct -0.7 04:01:42 10° SE 04:02:05 10° SE 04:02:28 10° SE visible
27 Oct -2.6 05:34:56 10° SW 05:38:08 41° SSE 05:41:20 10° E visible
28 Oct -2.1 04:47:25 15° SSW 04:49:35 29° SSE 04:52:34 10° E visible
29 Oct -1.6 04:01:05 21° SE 04:01:05 21° SE 04:03:41 10° E visible
29 Oct -3.5 05:34:04 10° WSW 05:37:25 69° SSE 05:40:47 10° E visible
